Regional Weather Roundup
Issued by NWS

Home | Current Version | Previous Version | Text Only | Print | Product List | Glossary Off
Versions: 1 2 3 4 5 6 7 8 9 10 11 12 13 14 15 16 17 18 19 20 21 22 23 24 25 26 27 28 29 30 31 32 33 34 35 36 37 38 39 40 41 42 43 44 45 46 47 48 49 50

762
ASUS44 KJAN 310910
RWRMS

MISSISSIPPI HOURLY WEATHER ROUNDUP
NATIONAL WEATHER SERVICE JACKSON MS
400 AM CDT THU JUL 31 2014

NOTE: "FAIR: INDICATES FEW OR NO CLOUDS BELOW 12,000 FEET WITH NO
SIGNIFICANT WEATHER AND/OR OBSTRUCTIONS TO VISIBILITY.

MSZ001>002-007>008-010>013-018>021-025>028-034>036-311000-
NORTHWEST MISSISSIPPI

CITY           SKY/WX    TMP DP  RH WIND       PRES   REMARKS
CLEVELAND      CLOUDY    70  69  97 N6        30.05S
GREENWOOD      CLOUDY    71  66  84 E3        30.03F
GREENVILLE     CLOUDY    71  68  90 N7        30.05S
GRENADA        CLOUDY    68  64  88 N3        30.05F
OXFORD         FAIR      66  64  94 CALM      30.08F
TUNICA         DRIZZLE   70  68  94 W6        30.08R
$$

MSZ003>006-009-014>017-022>024-029>033-037>039-311000-
NORTHEAST MISSISSIPPI

CITY           SKY/WX    TMP DP  RH WIND       PRES   REMARKS
BELMONT        CLOUDY    66  64  91 CALM      30.06F
COLUMBUS AFB   CLOUDY    69  63  83 N2        30.04F
CORINTH        PTSUNNY   68  66  94 CALM      30.07S
GOLDN TRIANGLE CLOUDY    68  61  77 CALM      30.05S
STARKVILLE     FAIR      68  63  83 CALM      30.05S
TUPELO         CLOUDY    71  63  75 NE5       30.05F
$$

MSZ040-058-311000-
CENTRAL MISSISSIPPI

CITY           SKY/WX    TMP DP  RH WIND       PRES   REMARKS
JACKSON INTL   CLOUDY    71  62  73 CALM      30.03F
JACKSON HAWKNS CLOUDY    74  58  57 E5        30.03F
MERIDIAN KEY   MOCLDY    66  62  87 CALM      30.03F
MERIDIAN NAS   MOCLDY    66  61  84 CALM      30.03F
RAYMOND        FAIR      68  64  88 CALM      30.02F
VICKSBURG      MOCLDY    69  66  90 CALM      30.02F
$$

MSZ059>079-311000-
SOUTH MISSISSIPPI

CITY           SKY/WX    TMP DP  RH WIND       PRES   REMARKS
BROOKHAVEN     FAIR      68  64  88 CALM      30.05S
COLUMBIA       CLOUDY    66  64  94 CALM      30.01S
HATTIESBURG    PTCLDY    65  63  93 NW3       30.03S
MCCOMB         CLOUDY    71  61  70 NE3       30.02F
NATCHEZ        CLOUDY    72  61  68 E5        30.02S
PINE BELT      PTCLDY    63  59  88 CALM      30.04R
$$

MSZ080>082-311000-
COASTAL MISSISSIPPI

CITY           SKY/WX    TMP DP  RH WIND       PRES   REMARKS
BILOXI         CLEAR     68  62  79 N5        29.99F
PASCAGOULA     CLEAR     63  62  97 CALM      30.00S
GULFPORT       CLEAR     72  60  66 N3        29.99S
$$



USA.gov is the U.S. government's official web portal to all federal, state and local government web resources and services.